sim
Sign-in with your pilot id or email,
or register
Callsign
Passwort

Schedule Details

Flight Number: EWG4106
Departure: Nuremberg Airport (EDDN) at 09:50
Arrival: Fuerteventura Airport (GCFV) at 14:40
Route: Eurowings Passenger Schedule. Enter filed route here before submitting Pirep.

Weather Information
Getting current METAR information for EDDN 182020Z 08008KT 050V110 CAVOK 15/02 Q1025
Getting current METAR information for GCFV 182000Z 36016KT 9999 FEW045 18/11 Q1019

Schedule Frequency

Route Map